WB2COY Weather Reports


time (UTC)temp
C
wind
direction
speed
KPH
gust
KPH
rain 1hr
cm
rain 24hr
cm
rain mn
cm
humidity
%
barometer
mb
20260502223016 12 0 1.6 6.4 0.00 0.56 0.56 34 1010.6
20260502220016 13 0.0 4.8 0.00 0.56 0.56 35 1010.2
20260502213056 13 23 1.6 6.4 0.00 0.56 0.56 34 1010.0
20260502210017 13 68 1.6 4.8 0.00 0.56 0.56 35 1009.9
20260502203016 13 45 1.6 4.8 0.00 0.56 0.56 34 1010.0
20260502200037 14 23 1.6 4.8 0.00 0.56 0.56 39 1010.3
20260502193016 14 0.0 3.2 0.00 0.56 0.56 44 1010.6
20260502190015 15 68 1.6 6.4 0.00 0.56 0.56 40 1010.9
20260502183037 13 68 1.6 6.4 0.00 0.56 0.56 51 1011.2
20260502163016 11 68 1.6 4.8 0.00 0.56 0.56 63 1012.2
20260502123015 9 0.0 1.6 0.00 0.56 0.56 80 1012.1
20260502113017 8 0.0 0.0 0.00 0.56 0.56 81 1012.2
20260502110058 8 0.0 0.0 0.00 0.56 0.56 81 1011.9
20260502103018 8 0.0 1.6 0.00 0.56 0.56 80 1011.8
20260502070016 8 0.0 1.6 0.18 0.28 0.28 72 1012.2
20260502063018 8 0.0 1.6 0.03 0.13 0.13 70 1012.3
20260502060016 8 0.0 1.6 0.08 0.10 0.10 69 1011.9
20260502053017 8 0.0 3.2 0.10 0.10 0.10 68 1011.9
20260502050016 10 0.0 3.2 0.03 0.03 0.03 65 1011.9
20260502043016 10 0.0 1.6 0.00 0.00 0.00 60 1012.0
20260502040016 11 0.0 0.0 0.00 0.00 0.00 55 1011.8
20260502033017 11 0.0 0.0 0.00 0.00 0.00 55 1011.5
20260502030016 11 0.0 0.0 0.00 0.00 0.00 52 1011.7
20260502023018 11 0.0 0.0 0.00 0.00 0.00 51 1011.5
20260502020016 11 0.0 0.0 0.00 0.00 0.00 47 1011.5
20260502013016 12 0.0 0.0 0.00 0.00 0.00 47 1011.5
20260502010016 12 0.0 0.0 0.00 0.00 0.00 45 1011.5
20260502003039 13 0.0 3.2 0.00 0.00 0.00 40 1011.1
20260502000016 14 0.0 4.8 0.00 0.00 0.00 36 1010.8
20260501233016 15 0.0 6.4 0.00 0.00 0.00 35 1010.4
20260501230016 16 225 1.6 11.3 0.00 0.00 0.00 31 1009.9